Fort Smith, AR

12:51 AM CST on February 12, 2016 (GMT -0600)
Fort Smith Regional

Weather History for KFSM - October, 2010

Change the Weather History Date:

Tuesday, October 26, 2010

  Actual Average Record
Temperature  
Mean Temperature 65 °F 60 °F  
Max Temperature 80 °F 72 °F 90 °F (1891)
Min Temperature 49 °F 48 °F 30 °F (1994)
Degree Days  
Heating Degree Days 0 7  
Month to date heating degree days 36 100  
Since 1 July heating degree days 40 117  
Cooling Degree Days 0 1  
Month to date cooling degree days 46 62  
Year to date cooling degree days 2584 2040  
Growing Degree Days 16 (Base 50)    
Moisture  
Dew Point 44 °F    
Average Humidity 48    
Maximum Humidity 74    
Minimum Humidity 22    
Precipitation  
Precipitation 0.06 in 0.15 in 2.91 in (1939)
Month to date precipitation 1.70 3.61  
Year to date precipitation 30.66 37.02  
Sea Level Pressure  
Sea Level Pressure 29.61 in    
Wind  
Wind Speed 8 mph (West)    
Max Wind Speed 31 mph    
Max Gust Speed 43 mph    
Visibility 9 miles    
Events Rain    
T = Trace of Precipitation, MM = Missing Value Source: NWS Daily Summary

Daily Weather History Graph

Daily Weather History Graph

Search for Another Location

Airport or City:

Trip Planner

Search our weather history database for the weather conditions in past years. The results will help you decide how hot, cold, wet, or windy it might be!

Date:

Astronomy

Oct. 26, 2010 Rise Set
Actual Time 7:33 AM CDT 6:28 PM CDT
Civil Twilight 7:07 AM CDT 6:54 PM CDT
Nautical Twilight 6:37 AM CDT 7:24 PM CDT
Astronomical Twilight 6:08 AM CDT 7:54 PM CDT
Moon 9:00 PM CDT (10/26) 11:06 AM CDT (10/26)
Length of Visible Light 11h 47m
Length of Day
10h 55m
Waning Gibbous, 87% of the Moon is Illuminated
Oct 26
Waning Gibbous
Oct 30
Last Quarter
Nov 5
New
Nov 13
First Quarter
Nov 21
Full

Hourly Weather History & Observations

Time (CDT) Temp. Heat Index Dew Point Humidity Pressure Visibility Wind Dir Wind Speed Gust Speed Precip Events Conditions
12:53 AM 80.1 °F 81.7 °F 64.0 °F 58% 29.28 in 10.0 mi SW 21.9 mph 33.4 mph N/A   Clear
1:44 AM 66.2 °F - 60.8 °F 83% 29.37 in 2.5 mi WNW 21.9 mph 38.0 mph 0.00 in Rain Heavy Rain
1:51 AM 66.2 °F - 60.8 °F 83% 29.39 in 4.0 mi West 15.0 mph 26.5 mph 0.06 in Rain Light Rain
1:53 AM 66.0 °F - 60.1 °F 81% 29.38 in 6.0 mi West 15.0 mph 25.3 mph 0.06 in Rain Light Rain
2:53 AM 64.9 °F - 52.0 °F 63% 29.43 in 10.0 mi WNW 12.7 mph 21.9 mph 0.00 in   Clear
3:53 AM 64.0 °F - 46.0 °F 52% 29.47 in 10.0 mi WNW 10.4 mph 20.7 mph N/A   Partly Cloudy
4:53 AM 60.1 °F - 46.9 °F 62% 29.49 in 10.0 mi SSW 4.6 mph - N/A   Clear
5:53 AM 60.1 °F - 46.9 °F 62% 29.53 in 10.0 mi West 5.8 mph - N/A   Clear
6:53 AM 61.0 °F - 45.0 °F 56% 29.56 in 10.0 mi West 13.8 mph 20.7 mph N/A   Partly Cloudy
7:53 AM 61.0 °F - 44.1 °F 54% 29.59 in 10.0 mi West 9.2 mph - N/A   Partly Cloudy
8:53 AM 63.0 °F - 43.0 °F 48% 29.63 in 10.0 mi West 12.7 mph - N/A   Clear
9:53 AM 64.0 °F - 42.1 °F 45% 29.67 in 10.0 mi West 15.0 mph - N/A   Clear
10:53 AM 66.0 °F - 39.0 °F 37% 29.69 in 10.0 mi West 17.3 mph 23.0 mph N/A   Clear
11:53 AM 68.0 °F - 39.0 °F 35% 29.70 in 10.0 mi West 15.0 mph 23.0 mph N/A   Clear
12:53 PM 70.0 °F - 36.0 °F 29% 29.71 in 10.0 mi West 13.8 mph 20.7 mph N/A   Clear
1:53 PM 70.0 °F - 36.0 °F 29% 29.70 in 10.0 mi SW 10.4 mph 18.4 mph N/A   Clear
2:53 PM 71.6 °F - 33.8 °F 25% 29.70 in 10.0 mi West 8.1 mph 21.9 mph N/A   Clear
3:53 PM 73.0 °F - 32.0 °F 22% 29.67 in 10.0 mi WSW 12.7 mph - N/A   Clear
4:53 PM 71.1 °F - 30.9 °F 23% 29.68 in 10.0 mi WSW 11.5 mph - N/A   Clear
5:53 PM 69.1 °F - 30.9 °F 24% 29.67 in 10.0 mi WSW 8.1 mph - N/A   Clear
6:53 PM 63.0 °F - 37.0 °F 38% 29.69 in 10.0 mi Calm Calm - N/A   Clear
7:53 PM 55.9 °F - 42.1 °F 60% 29.71 in 10.0 mi Calm Calm - N/A   Clear
8:53 PM 55.9 °F - 41.0 °F 57% 29.74 in 10.0 mi Calm Calm - N/A   Clear
9:53 PM 54.0 °F - 43.0 °F 66% 29.77 in 10.0 mi Calm Calm - N/A   Clear
10:53 PM 52.0 °F - 41.0 °F 66% 29.78 in 10.0 mi Calm Calm - N/A   Clear
11:53 PM 50.0 °F - 43.0 °F 77% 29.79 in 10.0 mi Calm Calm - N/A   Clear